Location: Poughquag
(41.6090°N, 73.6820°W)
Time: 02:31:29
(UTC-05:00)

X-37B - Visible Passes

Search period start: 02 December 2021 00:00
Search period end: 12 December 2021 00:00
Orbit: 330 x 341 km, 45.0° (Epoch: 20 November)

Date Brightness Start Highest point End Pass type
(mag) Time Alt. Az. Time Alt. Az. Time Alt. Az.
05 Dec 2.4 17:41:25 10° S 17:43:18 16° SE 17:43:42 16° SE visible
06 Dec 1.1 18:00:51 10° SW 18:03:24 39° SSE 18:03:24 39° SSE visible
07 Dec 1.7 18:21:04 10° WSW 18:23:02 40° WSW 18:23:02 40° WSW visible
08 Dec 1.2 17:06:16 10° SW 17:08:59 39° SSE 17:11:25 12° E visible
08 Dec 3.2 18:41:38 10° W 18:42:38 19° W 18:42:38 19° W visible
09 Dec 0.2 17:26:29 10° WSW 17:29:22 89° N 17:30:58 23° ENE visible
10 Dec 0.8 17:47:04 10° W 17:49:52 50° NNW 17:50:30 39° NNE visible
11 Dec 1.4 18:07:44 10° WNW 18:10:03 36° NNW 18:10:03 36° NNW visible
